Weather in Bezmenovo

Russia / Novosibirsk Oblast     54°04′57″N   83°23′33″E
temp.,
°C
wind,
m/s
gust,
m/s
humid.,
%
clouds,
%
prec.,
mm/h
press.,
hPa
HPBL,
m
3 march, wed
wed301:00−16wsw1198100 0.1 101820
04:00−18wnw119999 0.0 101720
07:00−18sw129896 0.1 101820
10:00−15w1196100 0.0 101982
13:00−11sw2389100 0.1 1020343
16:00−9sw3590100 0.1 1021518
19:00−12sw3695100 0.2 1022132
22:00−14ssw379780 0.0 1024114
4 march, thu
thu401:00−15ssw499780 0.1 1025192
04:00−16s5119685 0.0 1024241
07:00−14s5139292 0.0 1024371
10:00−9ssw71487100 0.0 1023657
13:00−7ssw71388100 0.0 1022705
16:00−4ssw71286100 0.0 1021783
19:00−5ssw61387100 0.0 1020648
22:00−9ssw5138998 0.0 1019378
5 march, fri
fri501:00−9s5148975 0.0 1018383
04:00−8s41285100 0.0 1015350
07:00−8s5148399 0.0 1014517
10:00−5ssw81493100 0.6 1014796
13:00−3sw81493100 1.2 1015945
16:00−2wsw91580100 0.4 10171442
19:00−5sw7148499 0.4 1020814
22:00−5sw71584100 0.0 10201041
6 march, sat
sat601:00−6sw71494100 0.4 1021905
04:00−6sw71394100 0.5 1021781
07:00−6sw71495100 1.3 1021750
10:00−6sw91593100 0.8 1020814
13:00−4ssw91683100 0.9 1019819
16:00−3ssw81579100 0.0 1017927
19:00−4ssw71680100 0.0 1015804
22:00−6sw71783100 0.0 1014678
7 march, sun
sun701:00−5sw81692100 0.1 1014711
04:00−5sw71493100 0.4 1014634
07:00−5sw61293100 0.6 1017527
10:00−4sw61090100 0.1 1019754
13:00−3sw5987100 0.1 1020678
16:00−2ssw4689100 0.0 1020662
19:00−3s4794100 0.1 1018410
22:00−5s51093100 0.1 1017330